Location: Unspecified
(0.0000°N, 0.0000°E)
Time: 14:23:02
(UTC+00:00)

A-11 Canister half - Pass Details

Date: 24 May 2026
Orbit: 1524 x 1684 km, 47.3° (Epoch: 7 June)

Event Time Altitude Azimuth Distance (km) Brightness Sun altitude
Rises 22:52:35 0° 325° (NW) 4,877 12.0 -63.8°
Reaches altitude 10° 22:55:43 10° 327° (NNW) 3,906 11.4 -64.3°
Enters shadow 22:56:20 12° 328° (NNW) 3,720 11.2 -64.4°
Maximum altitude 23:05:46 73° 51° (NE) 1,744 - -65.6°
Drops below altitude 10° 23:15:53 10° 134° (SE) 3,939 - -66.8°
Sets 23:19:03 0° 136° (SE) 4,919 - -67.1°
